GEFSNE_con_probscp_258.txt.gz
Probability
5 9 13 13 11 12 15 16 14 10 6 9 13 15 15 12 7 6 7 5 3 1 0 0 0 0 0 0 0 0 1 2 2 2 1 1 0 0
9 11 14 14 15 17 18 19 17 13 9 11 16 18 16 13 10 9 9 8 5 2 0 0 0 0 0 0 0 0 0 1 1 2 2 1 0 0
13 14 15 17 19 20 19 20 19 16 12 12 14 17 18 15 13 14 13 11 8 5 2 1 0 0 0 0 0 0 0 0 0 1 2 1 0 0
18 17 16 18 19 20 19 19 19 16 13 11 11 15 18 17 15 14 13 11 10 6 3 2 1 1 0 0 0 0 0 0 0 1 1 0 0 0
21 20 18 17 18 19 20 20 19 18 15 12 10 14 16 17 15 12 10 11 10 7 5 3 3 2 1 0 0 0 0 0 0 0 0 0 0 0
23 22 20 18 17 17 19 20 20 20 19 16 12 13 15 15 14 10 9 12 13 10 9 7 6 5 3 1 0 0 0 0 0 0 0 0 0 0
22 22 21 20 17 16 16 18 20 21 21 18 15 14 16 18 16 13 12 15 16 15 13 11 11 10 7 4 2 1 0 0 0 0 0 0 0 0
19 20 20 18 16 15 13 13 15 17 19 19 18 18 21 23 22 21 19 19 19 18 16 14 14 14 11 8 5 2 1 0 0 0 0 0 0 0
18 19 18 17 17 17 14 12 12 14 17 20 21 23 26 27 28 26 25 24 22 21 19 16 14 14 12 9 6 3 1 0 0 0 0 0 0 0
19 19 19 20 21 20 19 18 19 20 18 18 21 24 25 26 27 26 25 24 22 22 20 16 13 12 10 8 6 3 1 0 0 0 0 0 0 0
20 20 21 22 21 21 23 26 28 26 20 15 15 17 17 17 20 22 22 21 19 19 18 15 13 11 10 9 8 5 2 0 0 0 0 0 0 0
21 21 19 17 15 15 20 26 29 28 24 20 16 15 16 16 17 20 21 20 18 17 17 16 14 13 12 12 11 9 6 3 1 0 0 0 0 0
20 20 17 12 7 6 12 20 22 23 27 27 24 23 22 22 22 22 23 24 21 19 19 19 15 12 11 12 12 11 9 7 4 2 1 0 0 0
17 16 14 9 3 1 5 9 10 13 22 26 25 23 22 23 24 24 25 26 25 21 19 18 13 9 8 9 10 10 11 10 8 5 2 1 0 0
13 11 9 5 2 1 2 2 3 8 14 18 19 19 19 19 21 21 21 22 21 17 14 13 10 8 7 8 8 10 11 12 10 7 4 1 0 0
9 9 8 6 5 5 5 4 5 7 9 12 14 17 18 18 17 15 14 14 12 9 8 8 8 8 7 8 8 10 11 10 9 7 6 3 1 1
8 11 12 11 11 12 14 13 12 9 7 7 10 12 14 14 13 13 12 10 7 5 6 8 8 8 7 7 8 9 9 9 7 7 6 4 3 2
9 13 16 16 17 19 19 19 16 12 9 8 8 9 9 10 11 12 13 10 7 6 7 9 9 7 6 5 5 7 7 8 7 8 7 5 3 3
8 11 16 20 22 22 21 20 17 15 13 11 10 9 8 9 10 11 11 8 7 6 7 9 9 8 5 4 5 5 5 6 7 8 7 4 3 3
7 9 13 17 20 21 21 20 18 17 16 14 11 9 8 8 9 9 9 6 5 6 7 8 9 7 5 4 5 4 3 4 5 6 6 4 3 2
8 8 9 11 14 16 16 17 18 18 17 15 11 9 9 9 9 9 7 6 5 6 7 8 8 7 5 4 4 4 3 2 3 4 4 4 3 2
9 9 8 8 9 11 12 13 14 16 16 15 12 11 10 11 11 9 7 6 6 6 7 8 7 6 5 4 3 3 3 3 3 2 2 2 2 2
10 9 8 7 8 10 11 11 12 12 13 14 14 12 11 12 11 9 8 7 6 6 6 6 6 6 5 4 3 3 4 4 4 3 1 1 1 1

GEFSNE_con_probscp_264.txt.gz
Probability
16 16 15 12 11 11 13 15 14 12 11 11 13 16 16 14 13 14 16 14 8 4 1 1 1 1 0 1 1 1 0 0 0 1 2 2 3 3
17 16 14 12 11 12 13 15 15 14 13 14 15 16 16 13 12 14 15 12 8 4 1 0 0 0 0 0 0 0 0 0 0 0 1 1 3 3
18 17 16 14 13 14 15 17 18 18 17 17 18 19 18 16 14 15 14 11 8 6 2 0 0 0 0 0 0 0 0 0 0 0 0 1 2 2
21 21 20 20 19 19 21 22 22 22 21 20 21 21 22 20 19 18 14 10 9 7 4 1 1 0 0 0 0 0 0 0 0 0 0 0 1 1
25 24 23 24 26 25 25 24 24 23 22 22 21 22 22 23 24 22 17 13 11 9 5 4 3 1 0 0 0 0 0 0 0 0 0 0 0 0
25 24 24 26 28 26 23 23 23 23 23 23 22 21 22 25 27 26 22 19 16 12 10 9 7 5 2 1 0 0 0 0 0 0 0 0 0 0
22 21 22 23 23 21 18 18 20 22 23 23 22 22 23 25 27 27 26 24 21 19 16 14 11 10 8 5 2 1 0 0 0 0 0 0 0 0
18 19 19 18 17 15 13 12 13 15 19 22 22 25 28 28 28 27 26 25 23 22 20 17 14 14 13 10 6 2 0 0 0 0 0 0 0 0
18 18 16 14 14 14 13 10 9 10 12 17 22 27 31 33 31 28 26 24 23 23 21 18 15 14 12 10 7 3 1 0 0 0 0 0 0 0
18 17 15 13 13 14 15 15 15 13 12 13 19 24 27 29 30 30 27 25 24 24 22 18 15 14 13 10 7 4 2 1 0 0 0 0 0 0
17 16 13 12 11 12 16 21 23 22 19 16 17 19 19 19 21 25 27 25 23 22 23 20 16 15 15 13 8 5 4 2 1 0 0 0 0 0
19 16 11 9 9 9 14 20 24 24 23 21 18 17 16 14 15 20 26 25 21 22 24 24 19 16 15 13 9 7 7 5 2 0 0 0 0 0
20 17 12 7 5 4 8 14 18 19 20 20 20 21 20 20 19 22 26 27 25 25 27 27 23 18 14 11 9 9 9 8 5 3 1 0 0 0
19 15 9 5 2 2 4 8 9 11 15 17 19 22 25 26 26 27 29 31 30 29 28 27 25 21 15 9 7 8 9 8 7 7 5 2 0 0
13 8 4 2 1 1 2 3 5 8 12 16 18 22 26 28 27 28 30 31 30 27 25 25 23 19 14 8 5 6 6 6 6 7 7 4 1 0
8 6 4 4 4 4 5 6 8 10 12 15 19 22 25 26 25 25 27 28 27 24 22 20 19 16 11 7 4 4 5 5 5 6 7 5 2 0
10 10 11 10 9 9 10 13 15 15 15 16 19 22 23 23 22 21 21 23 21 19 18 16 15 13 9 6 4 4 4 5 6 6 6 5 3 2
12 14 15 14 13 13 15 19 21 20 19 19 21 21 21 20 18 16 16 16 16 16 16 15 14 12 8 6 5 4 4 4 6 7 6 5 4 3
12 15 17 16 15 16 17 20 22 21 20 20 20 20 18 15 14 14 13 13 14 16 17 18 16 14 9 6 4 3 3 4 6 6 6 4 4 4
10 13 15 16 16 17 18 20 21 20 19 19 20 19 16 13 12 12 12 11 12 13 16 16 16 14 10 7 6 4 3 4 4 4 4 4 3 3
9 11 12 13 15 16 17 18 19 18 18 20 20 19 16 14 11 10 9 8 8 9 10 11 11 11 10 8 7 5 3 2 1 1 2 2 3 3
8 10 11 12 13 14 15 16 15 13 13 16 17 15 13 12 10 8 6 6 6 6 6 7 8 8 9 8 7 4 2 1 1 1 1 1 1 2
7 8 11 12 12 12 14 14 13 10 9 11 13 11 9 8 8 7 6 5 4 4 5 6 7 7 8 7 6 4 3 2 2 2 1 0 0 1

GEFSNE_con_probscp_270.txt.gz
Probability
1 1 1 2 2 3 2 2 3 2 1 0 1 1 2 2 2 3 4 5 5 4 2 1 1 2 5 6 6 5 5 7 8 8 8 7 5 4
2 1 1 1 1 2 2 1 1 1 0 0 1 2 2 3 3 3 3 3 3 3 2 1 1 2 3 4 3 3 3 4 5 5 5 4 4 4
1 1 0 0 1 1 1 1 1 1 1 1 1 2 3 3 3 3 3 2 1 1 1 0 1 1 1 1 1 1 1 1 1 1 1 2 2 2
1 1 1 2 2 2 3 3 3 3 3 3 3 3 3 3 3 4 4 3 2 1 1 1 1 0 0 0 0 0 0 0 0 0 0 1 1 1
3 3 3 3 3 4 4 5 6 5 5 5 5 5 4 3 4 4 5 5 5 5 4 4 3 1 0 0 0 0 0 0 0 0 0 0 0 0
5 5 5 5 5 6 6 7 7 6 6 6 6 6 5 4 4 4 4 5 6 7 6 6 4 2 1 1 1 1 0 0 0 0 0 0 0 0
6 7 8 8 8 8 8 7 7 6 6 6 7 7 6 5 4 4 4 5 5 6 6 6 5 4 4 4 4 3 1 0 0 0 0 0 0 0
7 9 10 10 9 7 6 6 6 6 6 7 8 9 9 8 6 6 7 8 8 8 8 8 6 5 5 5 5 4 2 0 0 0 0 0 0 0
9 10 11 10 7 7 6 6 5 4 4 6 9 10 11 11 9 9 10 11 11 11 11 10 8 6 3 2 2 1 1 0 0 0 0 0 0 0
10 11 11 9 7 7 7 6 4 2 2 4 6 8 10 11 12 12 12 12 11 11 12 11 8 5 2 0 0 0 0 0 0 0 0 0 0 0
12 12 11 9 6 5 5 5 4 3 3 3 3 4 5 7 10 12 13 12 10 8 9 9 7 4 1 0 0 0 0 0 0 0 0 0 0 0
15 14 11 8 5 2 3 3 3 4 5 5 3 2 3 4 5 8 11 12 10 8 6 6 4 3 1 0 0 0 0 0 0 0 0 0 0 0
17 14 10 6 2 1 1 2 2 3 5 6 5 4 5 5 4 5 7 9 10 9 7 5 4 2 1 0 0 0 0 0 0 0 0 0 0 0
15 13 8 3 0 0 0 1 1 2 5 6 6 6 7 7 7 6 5 6 8 9 7 6 5 5 3 2 0 0 0 0 0 0 0 0 0 0
10 8 5 1 0 0 0 0 1 2 4 5 6 5 5 6 7 8 7 7 7 7 6 6 6 6 5 3 1 0 0 0 0 0 0 0 0 0
5 3 1 0 0 0 0 0 1 2 3 4 4 3 3 3 4 5 6 7 7 6 5 5 6 6 5 4 2 1 0 0 0 0 0 0 0 0
1 1 1 0 0 0 0 0 1 2 3 3 3 2 1 1 1 2 3 4 5 5 4 5 5 5 4 3 3 2 1 1 0 0 0 0 0 0
2 3 2 1 1 1 1 1 1 3 3 3 2 1 0 0 0 0 0 1 1 1 2 3 3 3 3 3 3 3 2 2 1 0 0 0 0 0
4 4 4 3 3 2 2 2 3 3 3 2 1 0 0 0 0 0 0 0 0 0 0 1 1 1 1 1 2 2 2 3 2 1 0 0 0 0
3 3 3 3 3 3 3 3 3 2 1 1 0 0 0 0 0 0 0 0 0 0 0 0 0 0 0 0 0 0 1 2 2 2 1 0 0 0
1 1 1 2 2 2 2 2 2 1 0 0 0 1 1 1 1 0 0 0 0 0 0 1 1 1 0 1 1 1 0 1 1 2 1 0 0 0
0 0 0 0 1 1 1 1 1 0 0 0 0 1 2 2 1 1 1 1 0 0 0 1 2 1 1 1 2 1 0 0 0 1 1 0 0 0
0 0 0 0 0 0 0 0 0 0 0 0 0 1 1 1 1 2 2 2 1 0 0 1 1 2 2 1 1 1 0 0 0 0 0 0 0 0

GEFSNE_con_probscp_276.txt.gz
Probability
3 3 3 3 3 3 3 3 3 3 3 3 3 2 2 2 2 2 3 3 2 1 1 2 3 3 3 2 3 4 5 6 8 10 12 11 11 11
3 3 3 3 3 3 3 3 3 3 3 3 3 3 3 2 2 2 3 2 1 0 0 1 2 2 2 1 1 2 3 4 6 8 10 10 10 10
3 3 3 4 4 3 3 3 3 3 3 3 3 3 3 3 2 2 2 2 1 0 0 0 1 1 1 0 0 0 1 1 3 4 5 6 7 7
3 3 4 5 5 4 4 3 3 3 3 3 3 4 3 3 2 2 1 1 1 0 0 0 0 0 0 0 0 0 0 0 1 1 1 2 3 4
3 3 4 6 6 6 5 4 3 3 4 4 4 4 4 3 2 2 3 3 2 2 1 1 0 0 0 0 0 0 0 0 0 0 0 0 1 2
4 4 4 5 6 7 8 8 7 6 6 6 5 5 5 4 4 4 5 5 5 5 4 3 2 2 2 1 0 0 0 0 0 0 0 0 0 1
6 6 5 5 6 7 9 10 11 10 10 9 8 7 8 8 7 7 7 7 7 6 6 6 5 5 5 4 2 1 0 0 0 0 0 0 0 0
12 10 7 6 7 7 7 7 9 10 10 10 10 9 10 11 11 10 10 9 9 8 8 7 7 7 7 6 5 2 1 0 0 0 0 0 0 0
19 16 13 10 8 8 7 6 7 7 7 9 10 10 11 13 14 14 13 12 11 11 10 9 9 9 8 7 5 3 1 0 0 0 0 0 0 0
21 20 19 15 11 9 10 10 9 7 5 5 7 8 9 10 12 13 13 12 12 12 12 12 12 10 9 8 5 3 1 0 0 0 0 0 0 0
20 19 19 17 12 9 9 10 11 9 4 2 3 3 3 4 5 8 10 10 11 11 11 12 12 10 10 9 7 4 2 0 0 0 0 0 0 0
20 19 17 14 10 6 6 9 10 9 6 3 1 1 1 1 2 4 6 8 9 9 9 11 11 11 10 10 9 7 4 2 1 0 0 0 0 0
20 20 17 12 6 2 3 6 8 7 7 5 4 3 3 4 4 5 6 7 8 8 8 10 11 11 10 10 10 9 7 4 2 1 0 0 0 0
17 18 15 9 3 1 1 3 3 3 5 6 6 6 6 6 6 6 6 7 7 7 8 9 11 10 9 9 10 9 6 4 2 1 0 0 0 0
11 11 8 4 1 0 0 0 0 1 4 6 6 6 6 6 6 6 6 6 6 6 6 7 8 9 8 9 9 9 7 4 2 0 0 0 0 0
6 6 4 2 1 1 1 1 1 2 4 5 5 4 4 4 4 4 4 5 5 5 5 4 4 5 6 8 8 8 7 5 2 0 0 0 0 0
5 5 5 5 4 5 5 4 2 1 3 4 4 3 3 3 3 3 3 4 5 6 5 3 1 1 2 4 5 4 4 3 1 0 0 0 0 0
3 4 6 6 8 9 9 6 3 2 3 4 3 3 3 3 3 1 1 3 5 5 5 3 1 0 0 1 1 1 1 1 0 0 0 0 0 0
1 3 4 5 7 9 7 5 3 3 3 3 3 3 3 3 2 1 1 2 3 4 4 3 1 0 0 0 0 0 0 0 0 0 0 0 0 0
1 2 3 3 3 4 4 3 3 3 3 3 3 3 3 2 1 0 0 1 1 2 2 1 1 0 0 0 0 0 0 0 0 0 1 1 0 0
1 1 1 1 1 1 1 2 3 3 3 3 3 3 2 1 0 0 0 0 0 1 1 1 0 0 0 0 0 0 0 0 0 0 1 1 1 0
2 1 0 0 1 1 0 1 3 3 3 3 3 2 1 0 0 0 0 0 0 0 0 0 0 0 0 0 0 0 0 0 0 0 1 1 1 1
3 2 1 1 2 2 1 1 2 3 3 3 3 1 0 0 0 0 0 0 0 0 0 0 0 0 0 0 0 0 0 0 0 0 0 0 1 0

GEFSNE_con_probscp_282.txt.gz
Probability
7 9 10 9 8 8 7 7 5 2 1 2 4 5 5 3 2 3 3 1 0 0 0 0 0 0 1 2 3 3 3 3 3 4 4 4 5 6
10 11 11 11 11 10 9 9 8 6 3 3 4 6 6 5 5 5 4 2 1 0 0 0 0 0 0 1 2 2 2 2 1 1 2 2 3 4
12 13 14 15 14 14 13 13 12 11 8 6 5 9 11 11 11 9 6 5 4 1 0 0 0 0 0 0 1 1 1 1 0 0 0 1 1 1
14 14 16 17 17 16 16 15 14 14 12 10 9 11 15 16 15 13 9 7 5 2 0 0 0 0 0 0 0 0 0 0 0 0 0 0 0 0
16 16 17 18 19 20 19 17 15 15 15 14 12 13 15 16 17 15 13 11 8 4 1 1 0 0 0 0 0 0 0 0 0 0 0 0 0 0
19 19 19 19 20 21 21 18 17 17 17 16 15 14 15 16 18 17 16 15 12 8 5 4 3 2 1 0 0 0 0 0 0 0 0 0 0 0
22 22 21 20 19 18 16 16 17 18 18 18 17 17 18 19 20 19 18 18 17 14 11 10 9 9 8 5 2 0 0 0 0 0 0 0 0 0
20 21 20 18 15 13 11 9 11 14 16 18 19 19 20 20 21 20 20 21 21 19 16 14 14 15 14 11 6 2 0 0 0 0 0 0 0 0
16 17 18 16 13 12 11 8 8 9 12 16 18 18 18 19 20 20 21 23 22 20 17 16 16 16 16 12 7 2 0 0 0 0 0 0 0 0
14 15 17 17 14 13 13 12 13 13 12 12 14 14 14 15 18 19 19 19 18 17 16 16 15 15 14 12 7 3 0 0 0 0 0 0 0 0
13 14 16 16 13 12 13 14 17 19 15 11 11 12 11 11 14 18 18 15 13 13 16 16 14 14 15 14 10 5 2 0 0 0 0 0 0 0
15 15 13 11 9 8 11 15 16 18 19 17 16 17 16 14 14 17 18 15 11 11 15 17 16 15 16 15 13 11 7 4 2 1 0 0 0 0
17 15 11 7 5 4 8 13 14 15 19 23 25 25 25 24 22 21 20 18 16 14 15 17 18 18 16 14 14 15 13 9 7 6 3 1 0 0
16 13 9 4 1 1 4 8 9 11 16 23 27 29 30 30 29 27 23 22 20 17 15 16 17 17 16 13 14 16 17 15 13 12 9 5 2 2
9 6 3 1 0 1 1 2 5 9 14 20 25 26 27 28 29 28 25 23 21 17 15 14 14 13 14 13 13 16 18 18 17 16 14 10 7 6
4 3 2 1 1 3 4 5 7 11 15 19 23 24 24 25 25 25 23 20 18 16 13 11 10 9 11 12 11 13 16 17 17 17 16 14 13 12
5 5 5 4 4 6 8 10 13 15 16 17 20 21 21 20 20 20 19 16 14 13 12 10 8 7 8 8 8 9 10 12 13 13 14 13 13 14
5 7 8 8 7 8 8 10 12 14 14 15 16 16 15 14 14 14 14 13 12 12 11 9 7 6 5 5 5 5 5 6 7 8 10 10 9 10
4 5 8 8 8 8 8 7 8 10 11 12 11 11 10 10 10 11 11 11 11 11 10 9 8 6 4 4 4 3 2 3 4 5 6 6 5 4
3 4 6 7 6 6 6 6 6 8 10 10 9 9 9 9 9 10 10 10 10 9 9 9 7 5 4 3 2 1 0 1 2 3 4 5 3 2
4 4 5 5 4 4 4 4 5 6 8 9 8 8 7 8 8 9 10 9 8 8 8 7 6 4 3 2 1 1 0 0 1 2 3 3 3 2
4 4 4 4 3 3 3 3 3 4 5 7 7 6 6 6 6 8 9 8 8 8 7 6 5 4 3 2 1 2 1 1 0 1 1 1 1 2
3 3 3 3 3 3 3 3 3 3 4 6 6 5 4 4 5 7 8 9 8 7 6 5 5 4 3 2 2 3 2 2 1 0 0 0 0 1